Theta_e
351 348 345 348 349 348 348 348 346 346 347 347 346 347 349 350 348 350 349 349 350 349 349 349 347 346 344 343 344 343 342 343 341 341 341 337 333 333 333 333 336 339 340 341 341 339 338 338 339 338 337 338 340 341 339 338 339 339 339 337 337 336 334 333 333 334 335 335 335 335 334 334 333 332 333 333 334 335 334 332 332 332 333 333 333
351 350 348 349 348 347 348 347 347 347 347 347 346 346 349 350 349 350 350 349 349 350 349 348 344 343 342 342 344 343 342 343 342 341 342 340 336 332 332 332 333 335 338 340 341 341 340 340 340 339 337 338 339 340 340 339 339 338 338 338 338 337 336 335 334 333 334 334 334 334 334 333 333 333 334 335 335 336 336 334 334 333 333 333 333
351 351 350 349 348 347 346 347 349 348 347 347 346 347 349 349 347 348 350 348 347 348 348 345 342 341 342 342 344 345 343 343 342 341 342 343 339 334 333 334 334 335 336 337 339 341 341 341 341 341 339 338 339 339 340 339 339 338 337 338 338 338 336 336 335 335 335 334 334 334 334 334 334 334 334 334 335 335 336 335 335 336 335 334 334
351 351 351 349 348 348 347 348 349 348 348 348 346 347 349 348 348 349 349 349 348 346 344 343 341 341 342 343 343 343 343 342 342 342 342 343 342 338 336 337 337 337 336 335 336 338 340 341 341 341 340 339 340 340 340 339 338 338 337 338 339 338 337 336 336 336 336 335 335 335 335 335 335 335 335 335 335 335 335 336 336 336 336 336 336
352 351 351 350 349 350 349 349 348 348 349 346 345 348 348 348 349 349 348 349 348 345 343 343 343 342 341 341 340 339 340 341 341 341 342 343 344 341 339 339 339 338 336 335 335 334 336 339 340 341 341 340 340 341 341 340 339 338 337 338 339 339 338 337 336 336 336 336 335 335 335 336 335 335 335 335 335 335 335 335 335 335 334 335 335
352 351 350 349 349 350 348 349 350 349 348 345 347 350 349 348 349 349 347 346 345 343 342 342 343 341 339 338 338 339 339 340 341 342 342 343 344 342 342 343 342 339 337 335 334 333 333 335 339 340 340 340 340 341 341 341 340 340 339 338 337 338 338 338 337 337 337 336 336 335 335 335 336 335 336 335 335 335 335 335 335 334 334 334 334
347 348 347 346 346 348 348 349 351 349 348 345 345 350 350 348 348 349 346 342 342 342 341 342 342 339 338 337 338 340 341 341 343 342 342 344 345 345 344 344 343 341 341 338 333 331 330 332 337 338 339 340 340 340 341 341 341 340 340 339 338 338 338 338 338 338 338 337 336 336 336 336 336 336 336 335 335 336 336 336 336 335 334 335 335
339 341 345 344 343 347 349 350 350 348 348 345 345 349 350 347 348 348 345 342 343 342 342 342 340 338 337 337 337 339 341 341 342 342 343 345 346 346 345 344 342 342 343 339 332 330 330 331 334 335 337 338 338 340 340 341 341 341 340 340 339 339 339 339 338 338 338 337 337 337 337 337 337 337 336 335 336 336 337 337 337 336 336 336 337
336 338 342 342 341 347 351 350 349 347 347 346 347 350 349 347 349 347 344 345 345 344 342 340 339 337 338 337 336 338 340 341 342 344 345 346 346 346 344 343 343 343 343 340 336 334 331 329 331 333 335 336 337 339 339 340 340 340 340 340 340 340 340 340 339 338 338 338 338 338 338 338 338 338 337 336 336 337 337 337 337 337 336 337 337
338 339 341 341 341 345 349 350 349 348 347 346 348 350 351 349 347 346 345 347 347 345 342 339 338 338 339 338 338 339 340 341 343 345 345 345 346 346 344 342 342 343 343 343 341 339 335 332 330 331 333 335 336 337 337 337 338 338 338 338 339 339 339 340 339 340 339 339 339 339 339 339 339 339 338 337 337 337 337 336 336 336 336 337 337
338 339 340 341 341 343 347 349 349 348 346 347 348 351 351 349 347 346 344 345 346 344 341 338 337 339 339 339 339 339 339 341 343 343 344 345 345 346 345 343 343 343 343 343 342 340 339 338 336 335 333 333 334 334 334 333 333 334 334 334 336 338 338 339 339 339 339 339 339 339 339 339 339 339 338 338 337 338 337 337 336 336 337 337 337
338 337 339 340 341 343 347 347 347 347 347 348 349 350 349 347 347 347 344 343 342 342 340 338 337 338 337 337 338 338 338 340 342 342 344 344 343 344 344 342 342 342 342 343 343 342 341 341 341 339 337 335 334 333 332 332 330 330 330 331 333 335 337 338 339 339 339 339 339 338 339 339 340 340 339 339 338 338 338 338 337 337 337 337 337
337 335 337 340 340 342 344 343 344 347 347 348 349 349 349 346 345 346 344 342 342 341 338 336 337 336 334 336 337 337 339 339 342 343 343 342 341 342 341 340 339 339 340 340 342 343 342 342 341 339 338 338 336 334 334 333 334 333 333 332 332 334 335 337 338 338 338 338 339 339 339 339 340 339 340 339 339 339 338 338 337 337 337 335 334
337 336 336 339 340 341 342 340 344 347 347 348 348 347 348 346 346 347 343 343 343 340 336 336 337 334 332 335 335 336 339 340 343 343 342 342 341 341 341 341 340 339 340 338 339 339 336 339 341 337 338 339 338 337 336 336 336 335 336 335 334 335 336 337 339 338 337 338 339 339 339 339 339 339 339 338 337 336 335 333 332 330 328 325 324
339 338 338 340 341 341 340 339 344 348 346 347 347 346 347 345 346 346 343 343 344 339 337 338 339 337 335 335 335 336 338 340 342 342 343 342 341 341 342 341 340 340 342 338 338 338 331 334 340 337 337 340 339 338 337 336 334 334 336 335 336 336 336 337 338 338 338 339 339 339 338 336 335 334 332 330 328 326 323 321 320 319 317 316 316
338 341 341 341 340 340 339 340 345 347 346 346 346 347 347 345 345 346 343 345 346 342 339 338 337 336 337 338 337 335 335 339 342 342 343 342 341 341 341 341 341 340 341 339 340 338 329 329 333 332 334 338 339 340 336 334 332 331 331 331 332 332 331 330 330 331 333 335 334 332 329 326 323 322 320 319 318 317 316 316 315 315 315 315 315
337 339 342 341 340 339 340 342 346 347 346 346 346 346 346 345 345 345 345 346 347 344 339 335 334 334 337 341 340 336 336 339 342 341 342 342 341 342 340 339 339 339 339 339 338 335 327 326 328 326 327 332 337 340 337 334 332 329 328 325 326 325 324 323 322 322 323 324 323 321 319 317 317 317 317 317 317 318 318 318 319 319 318 318 318
337 338 341 341 340 340 341 343 347 347 347 346 346 347 345 345 346 345 345 346 347 345 339 334 334 335 339 342 341 340 339 339 341 341 341 342 342 341 340 338 336 338 338 337 337 336 330 330 332 329 324 325 332 336 336 334 327 324 323 321 320 320 320 319 318 318 317 317 317 317 318 318 319 319 320 320 320 321 321 321 321 321 321 321 321
337 338 340 340 340 341 341 343 347 348 347 346 346 347 345 345 347 345 343 345 346 344 341 335 331 334 340 342 342 343 341 339 340 341 341 342 341 341 341 337 335 336 336 335 337 337 334 333 334 331 326 324 326 328 329 327 322 321 321 319 319 318 318 317 317 317 317 318 320 320 321 321 322 321 322 322 322 321 321 321 321 321 321 321 321
336 335 338 340 340 341 341 343 346 348 347 346 346 347 346 345 348 346 342 343 345 344 340 334 328 331 340 342 343 343 342 340 340 340 340 340 339 340 339 337 335 335 335 336 338 338 335 335 335 333 329 327 326 324 324 324 322 322 321 320 319 319 318 318 318 319 320 322 323 323 323 323 323 322 322 322 322 322 322 322 321 321 321 321 322
338 337 338 339 339 340 341 343 346 347 347 347 347 347 347 347 348 348 344 340 342 342 336 331 327 330 339 342 342 342 342 341 340 340 340 338 337 337 338 337 336 337 337 337 338 337 336 335 335 334 332 331 332 328 325 325 325 324 324 323 322 322 321 321 321 323 324 324 324 324 324 323 322 323 322 322 323 323 323 323 323 323 323 323 324
340 340 340 340 339 339 341 341 345 348 347 347 348 347 348 348 347 347 346 342 341 339 332 327 328 330 334 338 340 339 340 342 341 339 338 337 337 337 338 338 337 338 339 337 336 336 335 335 334 334 334 335 336 332 328 327 326 325 325 325 325 324 324 324 324 325 325 325 325 325 325 324 323 323 323 323 322 322 323 323 324 324 324 324 324
338 340 341 340 339 339 339 341 343 346 347 346 346 346 347 348 347 345 345 343 343 341 332 326 328 331 330 331 334 336 338 340 340 339 338 338 340 340 339 339 338 338 338 337 335 334 335 335 334 333 334 336 336 334 331 329 327 327 326 326 325 325 324 324 325 325 325 325 325 324 324 323 323 323 323 323 323 323 323 323 323 322 322 321 321
341 341 341 340 339 339 338 339 341 343 346 345 345 345 346 348 348 345 344 344 344 342 334 325 325 330 329 326 328 332 334 336 337 338 340 339 341 342 340 339 339 338 337 337 335 334 336 336 334 333 334 335 335 333 332 330 329 327 327 327 326 326 326 326 325 324 324 324 324 324 324 323 323 324 324 324 324 324 325 325 324 323 322 320 319
341 340 341 341 338 338 338 338 340 341 343 344 345 345 346 347 347 347 345 344 342 342 339 329 323 327 329 325 325 328 330 333 336 340 342 341 340 341 341 340 339 338 337 336 335 336 337 336 335 334 334 335 335 333 332 331 330 328 328 328 328 328 328 327 326 325 325 324 324 324 324 324 324 324 325 325 325 326 326 326 325 324 323 321 319
336 335 338 340 340 339 340 339 339 340 340 342 344 344 345 346 346 346 346 345 342 341 341 335 325 323 327 326 324 325 326 331 337 341 341 340 339 340 341 341 339 338 337 336 336 336 337 335 334 334 334 334 334 334 332 331 330 329 327 328 328 329 329 328 327 326 325 325 324 324 324 324 324 324 324 325 325 326 327 327 326 325 324 322 320
334 334 335 338 340 340 341 341 340 340 341 341 342 344 345 344 344 344 346 346 344 341 341 339 330 323 324 326 325 324 326 331 337 341 342 342 340 338 340 340 339 338 337 336 337 337 337 336 334 333 335 335 335 334 333 332 331 329 327 326 327 328 329 327 327 326 326 326 326 325 324 324 323 323 324 325 326 327 327 327 327 326 325 323 320
336 336 336 336 337 339 341 341 341 341 341 341 341 343 344 343 343 343 345 345 343 340 340 340 336 329 324 324 326 325 327 333 338 340 341 342 341 339 339 339 338 338 338 338 338 338 337 336 334 334 336 336 335 335 334 333 333 332 329 326 325 326 327 327 326 325 326 325 326 326 326 324 323 323 325 325 326 327 327 327 326 326 326 323 320
338 338 337 337 337 338 339 339 340 340 341 341 341 341 342 343 342 342 343 344 343 340 340 340 341 336 328 324 325 325 327 333 337 340 341 341 341 341 340 340 339 337 337 337 337 336 335 334 333 333 335 336 335 336 336 335 335 335 331 327 325 324 325 325 324 324 324 323 324 326 326 325 324 324 325 326 326 327 327 326 325 324 324 321 319
338 340 340 338 336 337 337 336 337 337 339 340 340 340 341 342 341 341 342 343 343 341 339 339 339 340 336 330 326 325 327 331 335 338 339 340 341 340 340 340 339 338 337 336 336 334 334 334 334 335 335 336 335 335 336 336 336 335 332 328 325 324 324 324 324 324 323 323 323 324 326 325 324 323 325 326 326 327 327 326 325 324 323 321 321
338 340 341 339 338 337 335 336 335 336 337 338 340 341 342 343 342 341 341 342 342 341 339 338 338 339 339 337 333 328 326 327 332 336 338 339 340 340 339 339 337 336 334 335 335 334 333 335 336 337 336 335 335 336 336 336 336 334 332 328 325 324 324 324 324 324 323 323 323 324 325 325 323 323 325 326 327 327 327 327 327 326 324 322 323
335 338 340 341 339 337 336 337 336 336 335 336 337 339 341 342 343 342 341 341 341 341 339 338 338 338 338 338 338 334 329 326 327 332 336 337 337 338 339 338 336 334 332 331 330 330 332 336 337 338 337 336 336 336 336 336 336 335 332 327 324 324 324 324 324 324 324 323 323 324 324 324 324 324 325 327 327 327 327 327 328 328 326 324 325
334 336 339 340 341 340 339 337 336 336 336 335 335 336 338 340 342 342 342 341 341 340 339 338 338 338 338 338 337 337 335 331 327 327 331 334 335 334 335 336 335 333 330 329 327 325 329 334 336 338 339 338 338 337 336 336 335 335 332 328 324 323 323 324 325 324 324 324 324 324 324 324 324 324 326 328 328 328 329 329 329 329 328 327 327
332 334 337 340 342 344 342 340 338 337 336 336 336 336 336 337 339 341 341 341 341 341 339 338 338 338 338 338 337 336 336 336 331 327 326 329 331 330 329 330 331 329 328 327 326 324 325 329 333 336 338 339 338 337 337 337 335 334 332 329 327 326 325 324 324 324 324 324 325 324 324 325 327 328 330 330 330 329 330 331 331 330 329 329 329
332 332 335 339 341 344 345 344 342 339 336 336 336 336 335 336 337 339 339 339 339 340 340 339 338 338 337 337 338 337 336 337 335 331 328 326 327 327 327 326 327 326 326 325 325 325 324 325 328 331 334 336 337 337 337 337 336 335 333 330 329 328 326 325 324 324 324 324 325 325 325 327 328 330 331 331 331 331 332 333 332 330 330 330 330
333 334 334 338 342 344 344 345 345 342 339 337 336 336 336 336 336 338 339 340 339 339 338 337 337 337 337 337 336 337 338 337 336 334 332 328 325 324 325 325 324 325 325 325 325 325 324 324 325 326 329 332 334 337 338 338 338 337 335 334 333 330 327 326 324 323 323 325 325 326 326 327 328 329 330 332 332 333 334 334 332 331 331 330 331
334 335 336 338 341 344 344 344 344 342 341 339 337 336 336 336 336 337 339 340 340 340 339 338 337 336 337 337 336 336 337 338 337 336 334 331 328 325 323 323 322 323 323 325 325 325 324 324 324 324 325 327 331 335 337 338 338 338 338 337 335 332 330 328 325 323 323 323 325 326 326 327 328 330 332 333 334 334 334 333 333 332 332 331 331
335 336 338 339 341 342 343 343 343 342 341 340 339 337 337 337 337 338 339 340 340 340 340 340 339 338 337 336 336 336 336 336 336 336 335 334 332 330 327 324 322 322 322 324 325 327 326 324 324 324 324 324 326 329 332 333 335 336 337 337 336 334 332 329 326 325 324 323 324 325 326 328 329 331 333 333 334 333 334 334 333 333 332 332 331
336 337 338 339 340 340 340 342 343 343 342 341 341 340 340 340 340 339 339 339 340 341 341 341 340 340 338 336 336 336 336 335 335 335 335 335 334 334 332 329 327 325 324 324 325 326 327 327 326 325 324 325 325 326 327 330 334 336 336 338 337 334 332 330 327 326 327 326 325 325 327 328 330 332 332 333 333 333 334 334 333 333 333 331 330
336 336 337 338 338 339 340 341 343 344 344 343 343 342 343 343 343 342 340 339 340 340 341 342 342 342 340 337 336 336 336 335 334 335 335 335 335 336 335 333 332 330 327 327 326 326 327 327 327 326 327 327 327 327 329 332 335 336 334 334 335 332 331 331 330 329 330 329 328 328 329 330 331 332 333 332 333 333 333 333 333 333 332 329 328
335 336 337 338 339 340 341 342 344 345 345 345 344 343 343 343 343 343 344 342 340 340 341 341 342 342 341 340 337 335 336 335 335 335 335 335 336 336 336 336 335 334 332 330 329 328 327 328 327 328 329 330 328 328 330 330 331 332 331 332 333 332 331 333 332 332 332 333 333 332 331 332 333 333 334 333 333 333 333 333 333 332 329 326 325
336 337 339 341 342 341 342 343 345 346 345 345 345 344 343 343 342 342 344 343 342 342 341 341 342 342 342 341 339 337 337 336 336 335 335 336 336 336 337 337 337 337 336 335 333 331 330 329 328 328 329 329 327 327 328 327 327 328 330 332 332 332 333 335 334 333 333 334 336 335 332 332 334 335 334 334 333 333 334 333 331 328 327 325 325
338 339 340 342 343 345 345 345 345 346 346 345 345 345 345 345 344 344 344 343 342 342 342 342 341 341 341 341 340 340 340 340 338 337 337 337 337 337 337 338 338 338 339 337 336 334 333 331 330 329 329 328 328 328 328 328 329 329 331 330 330 332 334 335 334 333 333 334 336 335 333 331 333 334 334 333 332 333 333 332 329 327 326 326 326
341 341 341 342 343 345 348 348 348 347 346 345 346 347 347 347 346 345 345 345 344 343 342 341 341 341 341 341 341 341 341 341 340 340 340 338 338 338 338 339 340 341 340 340 339 338 336 335 333 332 331 330 330 331 331 331 331 332 332 332 332 333 334 334 334 334 334 333 335 336 334 332 333 334 334 334 333 333 332 331 328 327 326 326 327
343 343 342 342 342 345 348 350 349 348 346 346 347 348 349 349 348 347 347 347 346 345 343 342 342 342 342 342 343 342 341 339 340 341 342 342 341 341 341 341 343 343 343 343 342 341 340 338 336 335 333 332 332 332 332 333 333 335 336 335 334 334 333 334 336 336 335 334 336 337 335 334 335 335 335 334 333 333 333 331 329 328 326 327 327
345 345 344 344 344 345 348 349 349 348 347 346 347 349 349 350 350 350 350 349 349 348 347 346 345 345 345 345 344 344 342 341 341 342 342 343 344 343 343 344 344 343 343 343 344 344 344 343 341 339 337 335 334 333 333 333 335 336 337 338 338 336 335 336 338 338 337 337 336 337 336 336 337 337 336 334 334 333 332 330 328 327 326 326 326
343 343 343 344 343 343 346 348 350 350 349 349 349 350 350 352 353 355 355 354 353 352 351 350 349 349 349 348 348 347 345 344 343 343 343 343 344 344 344 346 345 345 344 342 342 343 344 343 342 341 339 337 335 334 334 335 336 337 339 340 340 339 338 339 340 339 339 339 338 338 338 337 337 337 336 334 332 331 330 329 328 327 326 326 325
343 343 343 343 344 344 345 348 350 351 351 351 352 353 354 355 357 359 359 359 358 357 356 355 353 352 352 352 351 350 349 347 347 346 345 346 346 346 346 347 346 346 345 342 341 343 344 343 342 342 341 340 339 337 336 337 337 338 340 341 341 340 340 340 340 340 340 339 339 338 338 337 338 338 336 333 331 330 329 329 329 328 327 326 325
345 344 343 342 343 344 346 348 349 350 351 353 354 355 357 360 361 362 363 362 362 360 360 359 358 356 355 354 353 353 352 352 351 350 349 349 349 349 349 348 348 348 345 344 345 347 347 346 344 344 344 343 342 341 339 338 338 339 341 342 341 341 340 341 341 340 340 339 338 338 337 337 337 337 335 332 330 330 330 330 329 328 328 326 323
348 345 344 344 344 346 348 349 349 350 352 354 355 356 358 361 363 364 365 365 364 363 363 362 361 361 359 358 356 355 355 355 355 354 353 353 352 351 351 351 351 350 348 347 349 349 349 349 348 347 346 346 345 344 342 341 341 341 342 342 342 341 341 341 341 340 340 339 339 338 337 337 337 336 334 332 330 330 331 331 330 329 328 326 321
352 350 349 349 349 349 349 351 352 352 354 355 356 358 359 361 363 364 365 366 366 365 365 365 364 363 363 361 360 358 358 358 357 357 357 356 355 354 353 353 353 352 350 351 350 350 349 350 349 348 347 347 346 346 345 344 343 343 342 342 343 342 342 341 341 340 340 339 339 338 337 336 336 334 333 331 330 330 330 329 329 328 326 324 321
Wind_Speed
2 2 4 5 4 4 3 3 4 5 5 5 4 4 5 5 4 3 3 4 4 2 3 4 6 6 8 10 8 5 4 3 3 4 3 3 3 4 6 6 7 8 8 8 8 8 8 8 8 7 7 7 7 7 6 5 6 6 6 6 5 5 5 6 6 6 6 5 4 3 2 2 2 2 2 2 3 3 4 4 4 3 2 1 1
4 2 4 4 3 3 2 3 4 4 4 4 4 4 5 4 3 2 2 3 4 3 5 6 8 9 10 11 9 7 4 5 3 5 4 4 2 2 5 5 5 6 7 7 7 7 7 7 7 7 7 7 7 7 6 6 6 6 6 6 5 5 5 5 6 6 6 5 4 3 3 2 2 1 1 1 1 2 2 3 3 3 3 2 2
6 6 5 4 3 3 2 2 3 3 4 4 3 4 5 5 4 3 2 3 4 5 8 10 11 10 8 9 6 9 6 6 4 4 4 3 2 2 3 4 4 5 6 6 6 6 6 6 6 6 6 6 6 6 6 6 7 7 6 6 5 5 5 5 5 5 5 5 4 4 3 3 2 1 1 1 2 2 2 2 2 2 3 3 3
10 9 7 5 4 3 3 3 2 2 3 3 2 4 4 4 4 4 4 5 5 8 11 11 11 9 5 5 3 9 8 7 5 3 4 3 3 2 2 3 3 4 5 4 5 6 6 6 6 6 5 5 5 6 6 6 6 6 6 6 5 5 5 5 5 4 5 4 4 4 4 3 3 2 2 2 2 3 3 2 2 3 3 3 4
12 10 9 6 5 4 3 4 2 2 2 2 2 3 3 4 3 3 4 6 6 10 12 10 8 6 4 2 4 7 7 6 2 3 3 3 3 2 3 3 3 4 4 4 4 4 6 7 6 6 5 5 5 5 6 6 6 6 6 6 5 6 6 5 5 4 4 4 4 4 4 3 3 3 3 3 3 4 4 4 4 4 4 4 4
12 11 10 8 7 6 4 2 2 1 2 2 2 3 3 3 2 2 5 6 7 11 12 10 6 5 5 5 6 7 7 5 3 2 2 2 3 3 3 2 3 4 4 4 4 3 4 6 7 6 6 6 6 6 6 6 5 6 6 6 6 6 6 6 6 5 5 4 4 4 4 3 3 3 3 4 4 4 5 5 5 5 5 5 5
13 11 9 9 8 6 4 2 2 1 1 0 1 2 1 2 3 4 8 11 10 11 11 9 6 6 7 7 7 9 7 5 3 1 1 1 3 3 3 3 4 4 4 4 4 4 4 5 6 6 6 6 6 6 6 6 6 6 6 6 6 6 6 6 6 6 5 5 5 5 5 4 4 4 4 5 5 5 6 6 6 6 6 6 7
14 12 9 10 8 5 4 3 3 1 0 0 1 2 2 2 3 3 9 14 13 10 8 7 7 6 6 7 8 8 6 4 3 2 0 2 3 3 4 4 4 4 4 4 4 4 4 4 5 6 6 6 6 7 6 6 6 6 6 7 6 6 6 6 6 6 6 6 6 6 6 6 6 6 6 6 7 7 7 7 8 8 8 8 8
14 13 10 10 9 6 5 4 3 2 1 1 1 3 3 3 2 3 9 12 9 6 6 6 6 6 7 7 8 7 4 3 5 2 0 2 4 5 5 5 5 5 5 5 5 4 3 3 4 5 6 6 6 6 6 6 6 6 6 7 7 6 7 6 6 6 6 7 6 7 7 7 7 6 7 7 8 8 8 8 8 8 9 9 9
13 13 11 11 10 8 6 5 3 2 2 3 3 3 3 3 4 5 9 11 7 4 6 7 6 8 9 5 7 7 4 3 5 4 2 2 5 5 5 5 5 5 6 5 4 5 4 3 3 4 5 5 5 5 5 5 5 5 5 5 6 7 7 7 7 7 7 7 7 7 7 7 7 6 6 7 7 8 8 8 8 8 9 9 10
13 13 13 12 12 10 7 6 4 2 2 2 3 5 4 3 4 5 9 10 7 5 8 8 7 10 9 5 6 6 4 5 5 4 4 4 4 4 5 5 4 4 4 4 4 4 4 3 3 3 4 4 4 5 4 4 4 4 4 4 4 5 6 7 8 8 8 8 8 8 7 7 7 7 6 6 7 7 8 8 8 8 9 10 10
14 14 13 13 12 12 9 7 5 3 2 2 4 5 4 3 3 5 7 10 10 8 8 9 8 8 7 5 6 6 4 6 6 5 6 6 5 5 6 7 6 4 3 3 4 4 3 3 2 2 2 3 3 4 4 4 3 3 4 3 3 3 4 6 7 7 7 7 8 8 7 7 7 7 7 7 7 7 8 8 8 8 9 9 9
15 14 14 14 13 13 11 8 6 4 3 4 5 5 4 3 3 6 9 10 10 8 5 8 9 6 6 6 6 6 5 6 7 6 6 6 5 5 7 8 8 6 3 3 4 4 3 4 4 2 2 2 2 3 3 3 2 2 3 3 3 2 2 4 5 5 5 6 6 6 6 7 6 6 6 6 7 7 7 7 6 6 6 6 6
14 14 14 14 14 14 13 9 6 5 5 5 5 5 4 4 3 6 10 10 9 8 7 7 8 7 8 9 8 8 7 8 8 6 4 5 5 4 5 6 6 5 4 3 5 4 1 3 5 2 2 2 2 2 2 2 2 2 3 3 3 3 2 3 4 4 4 4 4 4 5 5 5 4 4 4 4 4 4 4 4 4 4 5 5
14 13 13 14 14 14 13 9 6 6 6 6 6 5 4 4 4 6 8 8 8 9 7 5 7 8 9 10 9 9 9 8 8 8 5 4 5 4 3 3 3 3 1 2 3 2 3 3 4 2 3 3 3 3 2 3 3 3 4 4 3 3 3 3 3 3 3 3 3 3 3 2 2 1 1 2 2 3 3 3 4 4 4 5 5
14 14 13 13 14 14 13 10 8 7 6 6 6 5 5 5 5 7 8 8 7 7 7 6 6 9 9 9 8 8 8 9 10 9 7 6 7 7 7 5 3 3 3 2 0 3 4 2 3 2 3 4 4 4 4 5 4 3 3 4 4 4 3 3 2 2 2 2 2 2 1 1 1 1 1 2 2 3 3 4 4 4 4 4 4
16 15 14 14 14 14 13 11 10 8 7 7 6 5 5 5 5 8 9 8 7 5 6 8 8 10 10 8 7 5 7 12 13 11 9 9 9 10 8 7 6 5 4 3 1 3 3 3 4 2 2 3 5 5 5 5 4 3 2 2 3 3 2 2 1 1 1 1 1 2 1 1 1 2 2 2 2 3 3 4 4 4 4 4 4
16 16 14 14 14 14 13 12 10 8 8 8 7 6 6 5 6 9 9 7 7 5 6 9 10 10 10 8 6 3 6 14 14 11 12 11 10 9 4 5 9 8 6 5 4 2 2 4 5 5 3 2 4 4 5 5 3 3 3 2 2 2 1 1 1 1 1 2 2 2 2 2 2 2 2 2 2 2 2 3 3 4 4 4 4
16 16 15 15 15 14 14 12 10 9 8 8 8 6 6 7 7 10 9 7 7 6 4 6 10 11 10 9 7 4 6 13 13 12 15 12 9 7 5 2 8 10 9 7 5 2 1 4 7 7 5 3 2 5 5 4 3 3 3 3 2 2 1 1 1 2 2 3 3 3 3 3 2 2 2 2 2 2 2 3 3 4 4 4 5
15 17 16 16 15 15 14 13 11 10 10 9 8 8 8 8 8 10 10 9 8 6 3 3 8 12 13 10 7 5 6 10 11 13 16 13 8 6 4 4 8 9 9 8 6 3 2 4 7 8 8 6 4 4 5 4 4 4 3 3 3 3 3 3 3 3 3 3 3 2 2 2 2 2 2 2 2 2 2 3 3 4 4 4 5
15 16 16 16 16 15 15 14 13 12 11 9 9 9 9 8 8 9 9 9 10 8 5 3 7 13 15 12 10 9 8 9 11 12 12 10 7 6 4 7 8 7 8 9 7 5 5 5 7 8 6 6 7 3 3 5 5 5 4 4 4 4 4 4 4 3 3 2 2 2 2 2 2 2 3 3 3 4 4 4 4 5 5 5 6
16 16 16 16 16 15 16 15 13 13 12 11 10 10 10 9 9 8 7 7 9 9 6 5 9 14 15 13 11 11 11 11 12 11 11 10 8 7 7 7 6 6 9 10 7 6 6 4 5 5 4 4 7 6 2 3 3 3 3 3 3 4 4 4 4 3 2 1 1 1 1 2 3 4 4 5 5 6 6 7 7 7 8 8 8
18 18 18 17 17 16 16 16 15 14 13 12 11 10 10 11 10 8 7 6 7 7 6 6 9 12 14 14 12 11 13 13 11 10 11 12 9 7 8 9 8 7 10 10 8 7 6 6 6 5 5 6 6 6 4 2 1 1 1 2 2 2 2 2 2 2 2 1 0 1 2 3 4 4 5 6 7 7 8 9 9 9 10 10 10
20 19 19 19 18 17 17 17 17 16 14 13 12 11 11 11 10 8 8 7 7 7 5 6 9 9 10 11 11 11 13 13 12 10 8 8 9 7 6 8 11 10 12 12 10 8 7 7 7 6 6 7 8 9 8 6 4 4 4 3 3 2 2 2 2 2 2 1 2 2 2 3 4 4 5 6 8 9 10 11 11 11 11 11 11
22 21 20 19 19 18 17 17 18 18 16 14 13 13 12 12 12 11 10 8 7 7 5 6 8 8 6 8 10 12 12 11 13 12 7 6 9 9 6 8 13 13 13 13 12 10 9 9 9 9 9 9 10 10 10 9 9 9 7 5 4 3 4 4 5 5 4 4 4 4 4 4 5 6 7 8 9 10 11 12 12 13 12 12 12
23 21 19 18 18 17 17 17 17 18 17 16 14 14 14 13 13 12 11 10 8 8 7 7 8 9 8 8 10 11 11 12 13 12 10 9 10 11 9 7 10 14 15 14 14 13 13 12 11 12 12 11 11 11 10 10 10 10 9 8 7 6 6 7 7 8 7 7 6 5 6 6 6 7 8 9 10 10 11 12 13 13 13 13 12
24 22 19 18 18 17 17 17 17 17 17 17 17 16 16 16 16 14 13 12 11 9 9 9 9 10 10 10 11 12 13 13 12 11 12 12 10 11 11 9 9 14 17 17 16 15 14 13 11 11 12 11 12 11 10 11 11 10 10 10 9 8 8 8 8 9 9 8 7 7 7 7 7 8 8 9 10 10 12 12 13 14 13 13 12
26 24 21 20 19 18 18 17 18 18 18 18 18 18 18 18 17 16 15 14 14 12 11 11 11 11 12 12 12 13 14 13 12 11 12 13 11 11 13 13 12 15 16 16 17 15 12 12 13 13 12 12 12 12 12 12 12 12 12 12 11 10 10 10 10 10 10 10 9 9 9 9 9 9 9 9 10 11 12 13 14 14 13 12 11
27 26 24 21 20 20 19 18 18 19 19 19 19 19 20 20 19 18 17 16 16 15 13 13 13 13 14 15 15 14 15 14 14 14 14 15 15 14 14 15 16 17 18 17 17 15 11 11 13 14 13 13 13 14 15 15 13 13 13 13 13 12 12 12 12 11 11 12 12 12 12 11 10 10 10 10 10 11 11 12 13 13 13 11 10
28 27 25 24 22 21 21 20 19 19 19 20 20 20 21 22 21 20 19 18 18 18 16 15 15 15 15 16 17 17 17 16 16 16 16 17 18 18 17 16 17 19 20 19 18 15 12 12 14 14 15 15 16 17 17 17 15 15 14 13 14 14 13 13 13 12 12 13 13 14 13 13 12 12 11 10 10 10 11 12 13 13 12 10 10
29 28 27 25 24 23 22 21 20 20 19 20 21 21 21 22 23 22 21 21 21 20 19 18 17 18 18 18 19 19 19 19 18 18 19 20 21 21 21 19 18 19 21 21 21 18 15 15 15 16 16 16 17 18 18 17 17 16 15 14 14 14 14 14 13 13 13 13 13 14 14 14 14 13 12 11 11 11 11 12 13 13 13 12 12
30 29 28 27 25 24 24 23 22 22 21 21 21 22 22 23 23 24 24 23 24 23 22 21 20 20 21 21 21 20 20 22 21 21 21 22 23 24 24 24 22 20 20 22 24 21 17 16 17 17 17 16 17 18 18 17 18 18 17 15 15 14 14 13 13 14 14 13 14 14 15 15 15 14 13 12 11 11 12 12 13 14 14 15 16
31 30 29 28 27 26 25 25 24 24 23 23 23 23 24 24 24 24 25 25 26 25 25 24 23 22 22 22 22 21 21 23 24 24 24 25 25 25 26 26 26 24 22 23 25 23 19 18 18 19 19 18 19 19 19 19 19 20 18 15 14 14 14 13 13 14 14 14 14 14 15 16 16 15 14 13 12 12 13 13 14 15 16 17 19
33 32 31 30 29 28 28 27 26 26 25 25 25 25 25 26 26 26 26 26 26 26 26 26 25 24 24 24 24 23 22 23 25 27 28 28 28 28 27 27 27 27 25 24 25 25 22 20 20 21 21 21 21 20 21 21 20 20 19 17 16 15 15 14 14 15 15 15 15 15 15 15 15 14 14 13 13 13 14 15 16 16 17 18 19
35 34 33 32 31 30 30 29 28 28 27 27 27 27 27 27 28 28 28 28 27 27 28 27 27 26 26 26 25 24 24 25 25 27 29 30 31 31 30 29 28 28 27 26 26 26 25 22 22 24 24 24 23 22 22 22 21 21 21 20 19 18 18 17 17 16 16 16 16 16 16 16 15 14 14 14 14 15 16 17 17 18 18 19 20
36 35 34 33 32 32 32 31 31 31 30 29 29 29 29 29 29 29 30 30 29 29 29 28 28 28 28 28 27 26 26 27 26 26 28 31 33 34 33 32 31 30 29 29 29 28 28 26 25 25 26 26 26 25 23 22 22 23 23 22 22 22 20 20 19 18 17 17 17 17 17 17 16 16 15 15 15 16 17 18 18 19 19 20 21
37 36 36 35 33 33 33 33 33 33 33 32 31 30 30 30 30 30 31 31 31 30 30 29 29 29 29 29 29 27 28 29 29 28 27 29 32 34 35 35 33 32 31 31 30 30 30 30 28 26 27 28 28 28 27 25 25 25 25 25 26 25 24 22 21 19 19 19 19 19 19 18 17 17 16 16 16 16 18 18 19 19 20 20 21
38 37 36 36 35 34 34 34 35 35 34 34 33 33 32 32 32 32 32 33 33 33 32 32 31 31 31 31 30 29 30 31 31 30 29 28 29 32 34 34 34 33 33 32 32 31 31 32 30 28 28 29 30 30 30 30 29 29 29 28 28 27 26 25 23 21 20 20 20 20 20 19 18 17 16 17 17 17 18 18 18 19 19 19 18
38 38 37 37 36 36 35 35 35 35 35 35 36 35 34 34 34 34 34 34 35 35 35 34 33 33 33 33 32 32 33 33 32 31 30 30 30 30 31 32 33 33 33 33 33 32 32 32 32 31 30 29 30 31 31 30 31 31 31 31 31 30 28 27 25 23 21 21 21 21 21 20 18 18 18 18 19 18 18 18 19 18 17 16 16
39 39 39 38 38 37 37 36 36 36 37 37 37 37 36 36 36 36 35 35 36 36 37 36 35 35 35 35 35 35 35 35 34 33 32 31 31 31 31 31 32 33 34 34 34 34 34 34 34 33 32 30 30 31 31 30 32 33 32 32 32 30 29 28 27 25 24 23 21 21 22 21 20 19 19 19 19 19 19 19 19 17 16 14 14
40 40 39 39 39 39 38 38 37 37 38 39 39 39 38 37 37 38 37 37 36 37 37 38 38 38 38 38 37 37 36 36 35 34 34 33 32 32 31 31 32 33 34 36 36 36 36 36 37 36 34 34 33 32 33 34 34 34 32 32 32 30 28 29 29 27 26 25 23 22 22 22 21 21 21 20 20 19 19 19 17 15 13 12 11
41 40 39 39 39 40 40 39 39 39 40 40 41 40 40 39 38 38 39 39 38 38 38 39 39 40 40 40 40 39 38 37 37 36 36 35 35 34 32 32 33 34 35 37 38 38 38 39 39 38 38 38 37 35 35 35 34 34 33 33 33 31 29 29 30 29 28 26 25 24 22 22 22 22 22 21 20 19 19 17 14 12 11 11 11
42 41 40 39 39 40 39 39 39 40 40 40 40 41 41 40 39 39 40 40 39 39 39 39 40 40 40 40 40 40 40 40 39 38 38 38 37 36 35 34 34 35 36 38 39 39 40 40 40 40 40 40 39 38 37 35 33 34 35 34 34 32 31 31 31 31 29 28 27 26 24 22 23 23 23 21 20 19 18 14 12 11 12 12 13
42 41 41 40 40 39 39 39 40 40 40 39 39 39 39 39 39 40 40 41 41 41 40 40 39 39 40 40 40 41 41 41 41 41 40 39 39 38 37 37 37 37 38 39 40 40 40 41 40 41 41 41 40 39 39 36 33 33 33 34 34 33 32 31 32 31 29 27 27 27 25 22 23 24 23 21 20 19 17 14 14 14 14 14 14
43 42 42 41 40 40 40 40 40 40 39 39 38 38 37 37 38 39 40 41 43 43 42 41 41 40 40 40 40 41 41 41 42 42 42 41 40 39 39 39 39 39 40 40 41 41 41 41 42 42 41 40 40 39 38 36 33 32 32 33 34 33 32 31 30 28 26 25 25 26 25 23 22 24 23 21 20 19 17 17 16 15 14 14 14
44 44 43 42 41 41 41 41 41 41 40 40 39 38 37 36 36 37 39 40 42 44 45 44 44 43 42 41 42 41 41 41 42 43 43 42 42 41 41 42 42 42 42 42 43 44 44 44 45 44 40 39 40 38 37 36 35 33 32 32 31 31 30 28 25 23 23 23 24 24 25 24 23 24 24 21 20 19 18 17 16 14 13 14 15
45 44 44 44 43 42 42 42 42 42 42 41 40 40 39 38 37 37 38 39 42 44 45 46 46 46 45 45 44 44 43 43 43 43 43 43 43 44 44 45 45 44 45 45 45 45 46 46 48 46 43 41 40 39 38 38 36 34 32 30 28 28 27 26 25 25 25 25 24 24 26 25 24 24 24 21 19 19 19 17 15 15 15 16 18
45 45 45 44 44 44 43 43 44 44 44 43 43 42 41 39 37 36 37 38 39 42 44 45 46 47 47 47 47 47 47 46 45 44 44 44 44 45 46 47 47 47 48 49 48 47 47 47 48 48 46 44 42 41 40 40 38 35 32 30 29 29 30 30 30 30 29 28 27 27 28 26 24 24 24 21 19 20 20 19 18 19 19 18 18
45 45 45 45 45 44 44 44 45 46 45 44 44 43 42 39 37 37 37 37 38 40 41 42 43 45 46 47 48 49 49 48 47 46 45 45 46 47 48 49 49 50 52 52 50 50 49 48 49 49 49 47 45 44 43 42 41 37 34 34 35 35 35 35 35 34 32 32 31 30 30 29 25 23 23 21 20 21 21 20 21 21 20 19 20
45 45 45 45 45 45 45 46 46 46 46 45 44 43 41 38 35 35 36 37 38 40 40 39 40 42 44 46 47 48 49 49 48 47 46 46 47 49 50 51 51 53 56 54 51 52 52 51 51 51 51 51 50 48 47 45 44 41 39 40 39 38 39 40 38 36 34 35 34 32 32 30 26 22 21 20 21 22 22 22 23 22 22 21 20
44 44 44 44 45 45 45 45 45 45 45 44 43 43 41 39 36 34 33 35 38 39 39 39 39 41 43 45 46 47 48 47 47 46 46 46 48 50 51 51 53 57 59 55 52 53 53 53 53 53 53 54 53 53 51 49 47 45 44 44 42 41 42 43 41 39 38 38 37 34 34 32 27 24 22 22 23 25 24 24 24 24 23 21 19
Wind_Direction
155 126 140 140 123 117 106 94 82 73 73 75 74 78 87 91 89 83 74 68 75 69 41 77 99 108 121 129 157 172 160 174 106 55 61 129 155 146 138 138 146 153 157 160 162 166 170 175 177 173 170 168 165 167 173 167 166 175 169 159 156 147 147 153 160 164 166 170 173 173 175 160 142 131 113 88 74 64 58 57 57 60 61 61 11
190 153 166 179 146 152 148 92 79 82 82 79 71 74 79 69 56 54 43 63 87 110 89 97 107 107 113 119 153 180 173 182 143 57 61 111 129 141 137 137 143 151 158 165 169 170 172 178 179 177 177 175 170 170 174 169 170 180 180 174 171 164 157 158 163 167 173 180 183 185 187 180 172 166 133 44 17 27 45 47 42 39 30 14 349
196 188 193 206 187 170 162 106 84 76 62 65 61 68 78 67 59 72 88 92 95 110 106 111 110 107 108 95 142 193 196 186 163 63 52 82 97 125 131 128 133 139 147 161 175 178 179 183 183 179 178 180 178 177 177 172 175 180 182 182 182 181 174 171 172 169 174 179 185 187 185 189 202 224 259 297 311 332 352 3 358 359 357 349 333
197 196 197 213 203 171 166 172 134 88 58 45 48 71 87 79 79 87 98 99 98 114 113 112 107 101 95 73 159 199 198 182 165 61 48 65 79 122 136 125 126 130 135 151 169 179 183 186 189 186 181 183 183 184 183 177 178 183 186 189 190 193 188 187 190 181 181 184 190 197 196 204 221 241 264 291 302 309 315 318 309 301 299 301 305
192 193 195 201 191 178 182 177 151 113 70 35 46 88 97 75 84 89 98 105 112 128 119 108 107 85 62 102 161 165 161 157 129 30 43 57 69 132 146 124 122 127 126 137 155 170 181 185 190 192 186 186 188 188 189 186 186 188 190 196 200 201 197 198 203 199 199 200 204 211 214 220 234 249 268 286 295 305 309 309 299 292 290 290 298
190 193 197 197 188 188 200 183 158 130 65 37 42 87 84 67 94 89 90 103 122 135 120 107 117 106 106 133 135 129 133 123 81 26 24 54 87 121 132 117 120 126 122 119 134 154 173 180 186 193 190 185 187 188 191 193 195 195 195 201 203 207 207 207 211 212 213 216 221 227 228 233 247 258 268 276 281 292 298 301 299 296 299 302 305
200 204 207 206 201 189 188 203 207 166 82 107 64 89 89 69 74 77 97 103 113 124 114 108 118 123 137 138 125 127 132 124 127 139 30 83 100 112 122 122 122 114 112 108 118 138 146 165 175 182 184 180 183 185 190 197 202 200 202 209 208 211 213 214 221 224 224 229 233 237 238 236 245 254 260 271 276 280 283 288 292 293 297 301 302
207 211 214 211 208 189 173 192 216 207 154 240 78 129 169 112 64 86 114 109 109 113 108 116 116 124 153 146 138 143 142 153 188 207 221 136 111 121 124 119 125 112 106 103 104 122 129 146 158 166 175 176 180 185 190 198 205 203 206 217 219 220 222 224 230 233 234 239 240 243 249 247 248 254 261 270 275 279 282 283 286 289 292 296 298
208 206 208 209 208 199 185 190 204 208 217 238 169 163 165 136 117 133 130 117 116 119 122 130 125 144 159 150 156 161 135 162 204 199 178 154 124 123 123 112 118 115 109 109 101 102 108 126 139 152 166 169 172 181 189 196 205 207 210 219 224 227 231 233 236 240 241 243 245 247 255 259 258 262 269 273 275 279 281 283 286 288 291 295 297
207 204 202 204 208 207 198 196 199 196 204 217 200 183 169 149 145 147 143 135 127 129 144 145 149 164 165 153 157 156 123 132 180 160 97 135 131 120 122 113 110 113 114 114 100 89 89 99 117 144 161 166 167 176 189 192 198 204 209 216 222 224 228 234 237 242 243 244 247 249 255 263 263 266 273 275 276 277 279 281 284 288 292 296 298
206 203 202 202 207 210 204 196 193 195 199 196 190 190 191 175 152 150 157 154 143 147 162 157 148 156 161 152 142 144 128 119 136 135 100 96 110 120 121 111 106 102 100 109 109 91 88 101 112 141 163 168 171 178 193 195 196 202 206 211 215 215 218 227 234 239 244 246 248 250 253 259 263 265 271 274 273 275 278 281 284 289 293 295 296
210 206 204 204 207 212 211 205 201 204 204 188 189 194 196 188 161 144 153 159 152 154 176 176 156 150 159 157 130 110 105 123 120 109 106 94 95 123 119 103 94 72 67 107 126 113 106 123 123 140 166 178 183 184 194 201 205 209 211 212 210 207 211 219 228 236 244 249 250 251 251 253 257 262 268 271 271 273 279 285 290 292 293 294 296
213 210 206 207 209 212 218 220 212 206 205 198 201 198 187 193 176 138 139 148 145 141 164 181 180 186 183 170 153 132 109 128 130 107 101 98 96 111 105 92 82 70 69 99 129 132 132 148 151 157 166 180 190 196 210 204 197 210 210 205 204 212 223 224 230 237 243 249 249 245 245 247 252 257 263 267 271 277 284 291 298 300 301 303 306
212 212 208 209 211 214 222 228 217 210 205 198 210 207 188 195 175 141 144 147 146 139 129 145 164 176 168 153 156 165 146 132 140 142 119 99 87 90 105 99 81 77 71 79 125 121 98 168 160 151 153 152 158 178 217 186 151 172 190 184 186 196 207 222 230 233 236 239 236 233 234 242 249 255 263 270 280 292 300 307 315 321 323 324 327
211 212 210 210 211 215 223 226 220 218 210 202 217 220 205 202 173 151 156 149 149 155 148 149 152 152 154 146 148 167 166 157 159 163 153 119 105 109 148 161 114 121 83 40 119 58 357 193 173 157 150 143 136 134 135 138 132 141 154 153 160 170 173 191 208 211 213 209 208 213 216 224 235 249 279 302 316 324 325 331 334 337 338 337 338
213 213 211 210 210 215 221 221 219 220 215 212 216 219 215 209 178 161 161 149 152 173 187 199 177 164 166 154 156 174 176 173 167 163 162 152 150 152 165 178 168 180 230 269 22 7 3 147 157 158 154 146 144 139 144 150 144 146 151 149 155 162 165 171 180 185 189 181 175 165 147 127 93 40 10 352 343 340 339 343 344 345 346 345 347
214 214 212 211 209 213 217 215 216 216 216 217 217 220 218 209 180 170 168 156 160 177 184 189 180 172 172 160 167 193 180 166 161 163 168 169 179 184 180 192 206 206 209 215 274 352 36 83 80 88 138 158 156 157 165 166 156 162 172 163 166 170 166 167 160 143 130 123 115 101 89 70 58 38 27 14 4 0 356 353 351 351 352 353 355
214 213 212 212 211 213 214 212 213 211 212 213 212 218 212 199 179 176 176 160 161 171 166 179 186 175 166 156 153 150 156 164 165 163 169 180 195 205 217 208 204 199 194 221 261 294 78 56 38 51 76 145 165 170 173 170 160 169 182 178 180 186 170 156 106 88 91 91 83 77 73 61 59 51 44 37 23 17 3 357 352 350 351 352 354
215 214 212 214 214 212 212 212 209 206 208 208 209 211 203 195 177 176 185 173 170 184 165 180 200 188 165 151 139 117 146 171 181 170 164 175 198 227 269 213 192 199 204 230 251 217 97 5 13 27 29 31 148 175 176 178 177 171 177 180 178 175 159 136 104 98 89 88 84 76 71 62 60 53 46 38 25 17 5 359 354 352 350 347 346
215 215 214 215 215 211 211 213 209 206 208 204 206 208 204 200 179 177 190 185 183 206 208 192 204 190 174 164 155 160 170 172 183 181 173 178 196 229 241 163 168 184 199 233 249 221 257 326 357 359 356 16 57 149 158 157 165 160 154 150 148 144 137 128 120 114 102 93 85 75 66 54 44 35 27 20 16 9 2 358 352 348 345 341 338
214 216 215 215 216 211 209 214 212 208 207 203 207 210 210 208 193 187 191 184 191 218 240 216 200 192 184 184 180 175 179 171 173 184 187 191 206 225 201 159 162 173 196 228 236 228 256 306 345 342 339 15 26 37 128 132 140 146 138 133 136 134 131 130 128 126 121 113 102 82 56 35 20 11 6 3 0 358 354 350 346 344 341 339 337
215 217 219 217 217 213 210 213 214 208 205 204 208 210 211 214 209 204 201 188 192 216 234 211 201 197 190 199 203 186 186 189 186 193 199 201 212 226 223 203 193 188 200 219 227 229 253 296 327 322 317 341 356 4 58 104 118 141 140 147 152 148 146 144 142 144 143 145 133 67 19 12 6 2 359 356 354 350 346 343 340 338 335 334 332
218 218 222 221 219 217 212 213 215 212 207 205 208 209 210 216 218 216 216 209 197 209 225 208 204 207 198 203 213 197 191 196 194 199 204 203 206 217 226 230 232 208 198 216 237 236 248 279 289 293 307 308 319 335 338 354 7 303 252 207 187 176 181 178 169 168 170 179 215 342 349 354 353 352 349 348 346 343 342 340 337 335 331 329 327
221 219 221 221 221 219 215 214 216 217 212 206 208 211 211 216 223 224 226 225 209 207 222 211 208 214 203 200 208 203 198 195 184 183 195 201 208 218 223 230 234 215 196 209 226 226 236 263 277 282 293 293 299 307 306 315 332 318 289 243 225 246 256 250 240 238 245 256 283 303 315 326 332 336 338 338 340 340 340 339 336 334 330 326 324
221 220 218 219 220 218 217 216 216 219 219 213 210 212 212 218 225 227 228 230 218 209 218 220 217 217 201 198 208 205 201 195 179 176 188 206 219 224 221 231 229 210 190 200 217 220 228 250 266 269 271 280 288 293 299 313 322 317 301 265 252 281 289 283 280 276 274 276 284 291 301 312 319 327 331 333 334 335 335 334 332 330 326 323 323
223 222 218 218 220 218 217 218 218 220 221 220 217 214 213 217 225 227 226 230 227 213 211 218 221 220 209 204 211 204 194 190 182 182 197 214 228 224 212 220 223 209 199 204 218 227 237 253 260 258 260 267 275 286 299 311 314 312 300 277 271 284 287 287 286 284 282 283 287 292 300 306 314 320 323 325 327 328 329 329 329 327 325 324 325
228 226 222 220 222 221 218 218 220 220 220 220 219 218 217 217 223 226 226 228 230 223 215 217 221 221 216 211 212 207 194 185 183 192 206 214 228 229 216 206 201 207 210 213 223 235 247 253 245 243 254 261 269 283 297 305 308 308 299 284 280 283 284 284 283 283 285 287 290 293 294 297 301 306 310 314 318 321 324 327 328 327 327 327 327
228 229 226 223 224 225 223 220 221 222 222 220 218 218 220 222 223 225 226 227 230 229 222 220 223 223 222 221 220 214 201 189 185 198 213 216 223 231 229 224 211 207 210 217 229 238 246 246 236 234 247 258 267 276 282 288 298 303 300 295 291 287 284 284 283 282 284 288 291 291 290 291 294 297 302 306 311 316 321 325 327 326 327 329 329
226 227 228 227 225 226 228 226 226 226 224 223 221 218 219 226 229 229 229 229 231 233 229 226 227 226 226 227 229 224 211 201 195 199 209 216 225 231 233 235 230 220 217 224 236 239 237 239 237 234 240 251 261 267 270 275 284 291 293 293 290 286 283 283 283 283 283 285 287 286 284 285 287 291 295 300 304 310 317 323 325 324 324 326 329
225 225 227 228 228 229 231 231 231 230 227 224 224 221 219 225 230 233 233 233 234 236 236 234 232 232 230 230 233 231 222 216 209 205 206 210 220 231 234 234 233 228 227 232 241 244 237 233 233 234 241 249 255 259 262 266 273 280 284 283 280 280 280 279 279 281 281 280 279 279 279 279 279 283 287 290 294 301 310 316 318 318 317 314 318
227 226 225 227 228 229 231 232 232 232 232 228 225 224 223 224 228 232 234 235 236 238 240 240 238 237 237 235 235 235 231 227 220 214 212 212 217 227 233 235 233 231 232 235 241 243 238 232 231 235 241 247 253 257 257 258 263 272 277 275 269 269 271 272 272 273 273 273 273 273 275 274 273 275 278 282 285 290 298 303 307 309 306 299 303
229 229 228 227 227 229 231 233 233 233 234 234 230 228 227 227 229 231 233 235 237 239 241 242 242 241 242 241 240 239 235 232 229 223 220 221 222 225 229 234 237 238 236 236 241 244 239 233 233 236 239 242 248 251 252 254 261 270 274 268 260 259 263 266 267 268 268 268 268 269 270 270 270 269 271 274 277 282 288 292 297 301 298 292 297
231 230 230 229 228 229 231 233 236 235 235 236 236 234 231 230 232 233 235 236 237 240 241 243 243 242 243 245 244 243 240 236 235 232 228 227 230 230 231 233 237 240 240 239 241 245 242 235 232 232 234 239 244 248 251 256 261 268 270 262 255 256 258 262 265 267 267 266 265 266 268 269 268 266 266 269 274 280 285 289 293 296 294 292 295
232 232 231 231 230 230 231 233 236 238 239 239 239 238 236 234 234 235 236 236 237 239 241 242 244 244 244 245 246 245 244 242 240 238 236 233 234 236 238 238 239 240 242 242 242 244 244 239 235 235 236 239 243 247 250 254 258 263 266 263 261 263 262 261 262 264 266 266 264 265 267 268 267 264 266 272 278 283 286 290 293 294 293 292 295
233 234 233 231 231 231 232 233 234 238 241 242 242 242 241 238 237 238 238 238 238 239 241 243 244 245 245 246 247 246 246 246 244 242 240 239 239 241 242 244 244 243 243 243 244 245 247 243 240 241 243 244 245 247 249 253 257 261 264 266 268 268 265 261 259 259 261 262 262 263 265 264 263 266 271 276 280 285 288 290 290 291 291 292 294
232 234 235 233 231 231 233 234 234 236 239 242 244 244 245 243 242 241 240 241 241 242 243 244 245 246 247 247 248 248 247 248 248 245 243 242 242 244 245 247 248 247 247 246 246 247 249 247 242 241 243 247 249 249 249 250 254 258 262 266 268 269 268 265 260 257 257 258 258 258 260 262 265 269 273 276 280 284 288 289 289 290 290 291 293
232 234 235 235 232 231 233 235 236 238 239 241 243 245 246 246 245 244 243 242 244 245 245 246 247 248 250 250 251 250 249 249 250 249 248 245 245 246 247 249 250 251 250 250 250 249 249 250 247 242 240 242 245 247 248 248 250 254 258 261 263 266 267 265 261 257 255 255 255 255 257 261 265 267 269 273 278 282 285 286 287 289 289 290 292
232 233 234 235 235 234 234 236 237 239 241 242 244 246 247 247 246 246 245 245 245 246 247 248 248 249 250 252 253 252 252 251 252 252 252 251 249 247 248 250 252 252 252 252 252 252 251 252 252 248 243 241 242 243 244 246 248 251 255 257 260 263 264 262 260 257 255 254 255 256 257 259 261 263 267 272 275 279 281 284 288 289 290 291 288
232 233 235 236 237 238 238 238 238 239 241 243 245 246 246 246 246 246 247 247 247 247 248 249 250 250 250 252 253 253 254 254 254 254 254 254 253 252 251 251 252 252 253 253 253 252 253 253 253 252 248 245 244 244 245 246 247 250 253 255 257 259 261 261 260 259 257 257 257 257 257 257 259 262 266 270 274 277 279 284 289 290 290 289 283
233 235 236 237 239 240 241 241 241 240 241 243 243 244 244 245 246 246 247 248 249 249 249 249 250 251 251 251 252 253 254 256 256 257 257 256 256 256 256 254 252 251 252 253 253 252 253 254 254 254 252 248 246 246 245 243 243 247 251 253 256 259 261 262 262 261 258 258 258 257 256 256 257 261 265 269 273 276 280 286 289 289 289 285 278
236 237 237 237 238 240 242 242 242 241 242 243 243 243 244 244 245 246 247 248 249 251 251 250 251 252 252 252 253 253 254 256 257 258 259 259 258 258 259 257 255 253 252 252 251 251 252 252 253 253 251 250 247 245 243 242 244 249 253 254 256 259 260 260 260 259 257 257 256 254 253 254 255 259 263 266 271 277 282 286 287 285 283 280 278
237 238 237 237 238 239 240 241 242 242 243 244 244 244 245 246 246 247 246 247 249 251 252 252 252 253 254 254 255 255 255 255 256 257 259 259 259 259 260 260 258 256 254 252 251 251 250 251 252 252 251 252 252 248 246 247 250 252 251 252 255 258 258 256 256 256 254 254 254 253 253 254 256 258 261 265 271 277 281 283 281 276 271 273 280
236 237 237 238 238 238 239 240 241 243 244 246 246 246 246 246 247 247 247 248 250 251 252 253 254 256 256 256 257 257 255 255 255 256 257 258 259 259 259 259 258 258 257 255 253 252 251 251 253 252 252 255 258 255 252 250 250 250 251 252 253 253 253 254 255 255 253 250 251 253 254 256 258 258 260 265 270 276 279 276 268 262 263 271 277
234 236 237 239 240 239 239 239 241 244 247 248 248 248 247 247 247 247 247 248 249 250 252 254 256 258 258 258 258 257 257 257 257 256 256 257 258 259 259 259 259 258 258 258 257 255 253 252 253 253 254 257 260 259 257 254 250 251 252 251 250 250 251 252 254 256 254 251 250 253 256 258 258 258 260 264 269 274 275 266 257 259 267 273 274
232 234 237 239 241 240 239 239 242 245 249 251 250 249 249 248 247 247 247 248 249 250 252 255 257 258 259 259 258 258 258 259 259 257 257 257 257 257 258 259 258 258 258 259 259 258 256 255 254 255 257 259 260 261 262 259 254 251 250 250 250 249 249 250 254 255 254 251 249 251 255 255 255 257 261 265 270 273 268 258 258 264 271 274 272
231 233 236 238 240 241 240 240 243 247 249 251 252 251 251 250 249 248 248 249 249 250 251 254 256 257 258 259 259 260 260 260 260 258 257 257 257 256 256 256 256 257 258 258 258 256 255 254 254 254 256 258 260 263 264 261 256 252 250 251 252 251 250 252 255 255 254 253 250 249 252 253 252 256 260 264 269 268 259 253 257 263 266 268 269
232 234 236 237 239 241 242 242 243 246 248 250 251 252 252 252 251 250 249 250 250 251 252 253 255 256 257 257 258 260 261 261 262 261 259 258 258 258 257 256 257 258 258 259 259 257 255 255 256 256 258 258 260 262 262 259 257 255 253 254 256 256 254 252 251 249 249 250 248 246 248 250 250 254 258 265 269 259 245 243 250 257 260 262 267
233 234 236 237 239 241 242 242 243 244 247 248 250 251 252 252 251 250 250 251 252 252 253 254 255 256 257 256 257 258 259 260 261 261 260 259 258 258 258 258 259 259 260 262 262 260 259 260 261 261 261 261 261 261 260 258 257 253 250 248 248 247 245 244 244 244 245 245 245 245 246 247 249 253 259 267 263 247 237 240 246 253 257 260 270
231 233 235 237 238 239 240 241 243 245 245 246 248 250 251 251 251 250 250 251 253 254 255 255 256 257 258 258 258 258 258 259 259 260 259 258 257 258 258 259 259 259 262 263 261 259 259 260 262 263 262 261 260 259 258 256 255 250 242 238 237 235 235 236 237 238 239 241 242 243 243 244 243 248 257 263 252 239 238 243 246 251 255 261 274
232 233 234 236 237 238 239 240 243 245 246 246 247 248 249 250 251 252 252 253 255 257 258 258 257 258 259 259 259 259 259 260 260 260 259 257 256 257 258 258 257 258 262 261 258 258 258 257 258 259 259 258 257 256 255 253 252 247 239 236 234 232 230 231 232 234 235 239 242 241 241 241 239 240 247 246 236 234 239 243 245 249 254 263 276
235 234 234 235 236 238 239 240 242 244 246 247 248 248 249 249 251 253 255 255 256 258 258 260 261 262 262 261 260 260 259 260 261 261 260 258 257 257 257 256 256 259 262 260 257 258 258 256 256 257 256 256 254 253 252 250 248 245 241 238 235 232 230 230 230 229 229 235 241 239 238 240 240 238 235 227 223 229 237 241 244 249 255 264 274